Погода в Савгачево

Россия / Республика Татарстан     54°59′51″N   50°46′22″E
темп.,
°C
ветер,
м/с
пор.,
м/с
влажн.,
%
обл.,
%
осадки,
мм/ч
давл.,
гПа
погр.,
м
17 мая, вт
вт1700:00+7зюз33885 0.0 100134
03:00+6з33915 0.0 100142
06:00+9зсз238464 0.0 1000177
09:00+12зюз1170100 0.0 1000846
12:00+9зюз6793100 2.1 1001552
15:00+11з477350 3.3 10011140
18:00+10зюз358011 0.4 1001389
21:00+7юз229045 0.4 100224
18 мая, ср
ср1800:00+5зюз22934 0.0 100129
03:00+4юз229513 0.0 100126
06:00+7зюз3590100 0.0 1001248
09:00+8зюз6783100 0.0 1000877
12:00+7юз61195100 2.6 1001568
15:00+7сз5894100 4.1 10021049
18:00+7ссз6118774 0.1 1005794
21:00+6з349288 0.1 100695
19 мая, чт
чт1900:00+6з37955 0.3 1007197
03:00+4з4794100 0.4 1007140
06:00+5зсз4691100 0.1 1008573
09:00+4зсз4697100 1.0 1009639
12:00+8з4672100 0.1 10091124
15:00+6зсз488496 0.5 1009773
18:00+7з3680100 0.3 1009337
21:00+5зюз599598 0.8 1010358
20 мая, пт
пт2000:00+3з410978 0.1 1010262
03:00+2з49965 0.1 1010218
06:00+4зсз488590 0.0 1011391
09:00+5з4689100 0.5 1011789
12:00+7зсз457422 0.4 1011955
15:00+9зсз675951 1.5 10101482
18:00+7ссз697638 0.9 1011816
21:00+3сз41088100 0.9 1011338
21 мая, сб
сб2100:00+3ссз5994100 0.1 1011577
03:00+3сз51095100 0.1 1011548
06:00+4зсз61289100 0.0 1010759
09:00+6сз71066100 0.0 10101340
12:00+6сз7963100 0.1 10101591
15:00+7сз696379 0.1 10101456
18:00+5ссз4771100 0.1 1011862
21:00+2ссз35856 0.1 101193